• In Deutschland
  • Länderverzeichnis
  • Für 7 Tage
  • Wassertemperatur
  • Satellitenkarten
  • Wetterkarte
  • Widgets
  • user-avatar
    Anmelden

    Stündliche Wetter Kłodzko

    Heute, 22 September, Samstag

    Zeit Temperatur Niederschläge Wind Luftdruck Luftfeuchtigkeit
    00:00 +15°C° 0.8 mm 4 m/S 734 mmHg 85%
    01:00 +13°C° 0 mm 4 m/S 734 mmHg 86%
    02:00 +13°C° 0.5 mm 4 m/S 735 mmHg 84%
    03:00 +12°C° 0.5 mm 3 m/S 736 mmHg 83%
    04:00 +12°C° 0.5 mm 3 m/S 736 mmHg 82%
    05:00 +12°C° 0 mm 3 m/S 737 mmHg 81%
    06:00 +11°C° 0 mm 3 m/S 737 mmHg 81%
    07:00 +11°C° 0 mm 4 m/S 738 mmHg 78%
    08:00 +12°C° 0 mm 4 m/S 738 mmHg 71%
    09:00 +13°C° 0 mm 5 m/S 738 mmHg 64%
    10:00 +15°C° 0 mm 6 m/S 738 mmHg 57%
    11:00 +15°C° 0 mm 6 m/S 737 mmHg 53%
    12:00 +16°C° 0 mm 6 m/S 737 mmHg 50%
    13:00 +17°C° 0 mm 6 m/S 737 mmHg 47%
    14:00 +16°C° 0 mm 5 m/S 737 mmHg 48%
    15:00 +16°C° 0 mm 5 m/S 737 mmHg 49%
    16:00 +17°C° 0 mm 4 m/S 737 mmHg 50%
    17:00 +16°C° 0 mm 3 m/S 737 mmHg 53%
    18:00 +14°C° 0 mm 3 m/S 737 mmHg 55%
    19:00 +14°C° 0 mm 2 m/S 737 mmHg 57%
    20:00 +13°C° 0 mm 3 m/S 737 mmHg 60%
    21:00 +13°C° 0 mm 3 m/S 737 mmHg 62%
    22:00 +12°C° 0 mm 3 m/S 737 mmHg 64%
    23:00 +12°C° 0 mm 3 m/S 737 mmHg 67%

    Morgen, 23 September, Sonntag

    Zeit Temperatur Niederschläge Wind Luftdruck Luftfeuchtigkeit
    00:00 +11°C° 0 mm 3 m/S 737 mmHg 70%
    01:00 +11°C° 0 mm 3 m/S 737 mmHg 72%
    02:00 +11°C° 0 mm 3 m/S 737 mmHg 73%
    03:00 +11°C° 0 mm 3 m/S 736 mmHg 74%
    04:00 +11°C° 0 mm 3 m/S 736 mmHg 75%
    05:00 +11°C° 0 mm 3 m/S 736 mmHg 76%
    06:00 +11°C° 0 mm 3 m/S 736 mmHg 77%
    07:00 +11°C° 0 mm 3 m/S 736 mmHg 78%
    08:00 +12°C° 0 mm 4 m/S 736 mmHg 76%
    09:00 +12°C° 0 mm 4 m/S 736 mmHg 73%
    10:00 +13°C° 0 mm 4 m/S 735 mmHg 71%
    11:00 +13°C° 0.2 mm 4 m/S 735 mmHg 73%
    12:00 +13°C° 0.2 mm 4 m/S 734 mmHg 76%
    13:00 +13°C° 0.2 mm 4 m/S 734 mmHg 79%
    14:00 +13°C° 0.6 mm 4 m/S 733 mmHg 82%
    15:00 +13°C° 0.6 mm 4 m/S 732 mmHg 86%
    16:00 +12°C° 0.6 mm 4 m/S 731 mmHg 90%
    17:00 +13°C° 0.6 mm 5 m/S 730 mmHg 89%
    18:00 +14°C° 0.6 mm 6 m/S 729 mmHg 88%
    19:00 +15°C° 0.6 mm 7 m/S 727 mmHg 88%
    20:00 +15°C° 2.8 mm 6 m/S 727 mmHg 90%
    21:00 +14°C° 2.8 mm 5 m/S 727 mmHg 91%
    22:00 +14°C° 2.8 mm 4 m/S 727 mmHg 93%
    23:00 +13°C° 1.3 mm 5 m/S 727 mmHg 92%

    übermorgen, 24 September, Montag

    Zeit Temperatur Niederschläge Wind Luftdruck Luftfeuchtigkeit
    00:00 +11°C° 1.3 mm 6 m/S 728 mmHg 92%
    01:00 +9°C° 1.3 mm 7 m/S 728 mmHg 91%
    02:00 +9°C° 0.3 mm 6 m/S 730 mmHg 89%
    03:00 +8°C° 0.3 mm 6 m/S 732 mmHg 88%
    04:00 +7°C° 0.3 mm 6 m/S 734 mmHg 86%
    05:00 +8°C° 0 mm 6 m/S 734 mmHg 85%
    06:00 +8°C° 0 mm 7 m/S 735 mmHg 84%
    07:00 +8°C° 0 mm 7 m/S 736 mmHg 83%
    08:00 +7°C° 0.1 mm 8 m/S 737 mmHg 77%
    09:00 +9°C° 0.1 mm 8 m/S 738 mmHg 72%
    10:00 +8°C° 0.1 mm 9 m/S 739 mmHg 66%
    11:00 +10°C° 0.1 mm 9 m/S 739 mmHg 61%
    12:00 +10°C° 0.1 mm 9 m/S 740 mmHg 57%
    13:00 +11°C° 0.1 mm 10 m/S 740 mmHg 52%
    14:00 +11°C° 0 mm 9 m/S 740 mmHg 51%
    15:00 +11°C° 0 mm 8 m/S 740 mmHg 51%
    16:00 +10°C° 0 mm 8 m/S 741 mmHg 50%
    17:00 +9°C° 0.1 mm 7 m/S 741 mmHg 56%
    18:00 +8°C° 0.1 mm 6 m/S 742 mmHg 63%
    19:00 +7°C° 0.1 mm 5 m/S 742 mmHg 69%
    20:00 +6°C° 0.1 mm 5 m/S 743 mmHg 71%
    21:00 +6°C° 0.1 mm 4 m/S 743 mmHg 72%
    22:00 +5°C° 0.1 mm 4 m/S 743 mmHg 73%
    23:00 +5°C° 0 mm 4 m/S 744 mmHg 74%

    25 September, Dienstag

    Zeit Temperatur Niederschläge Wind Luftdruck Luftfeuchtigkeit
    00:00 +4°C° 0 mm 4 m/S 744 mmHg 75%
    01:00 +4°C° 0 mm 4 m/S 745 mmHg 76%
    02:00 +4°C° 0 mm 4 m/S 745 mmHg 77%
    03:00 +4°C° 0 mm 4 m/S 746 mmHg 78%
    04:00 +4°C° 0 mm 4 m/S 746 mmHg 79%
    05:00 +4°C° 0 mm 4 m/S 747 mmHg 79%
    06:00 +4°C° 0 mm 4 m/S 747 mmHg 79%
    07:00 +4°C° 0 mm 3 m/S 748 mmHg 80%
    08:00 +5°C° 0 mm 4 m/S 748 mmHg 73%
    09:00 +7°C° 0 mm 4 m/S 749 mmHg 66%
    10:00 +10°C° 0 mm 4 m/S 749 mmHg 60%
    11:00 +10°C° 0 mm 4 m/S 749 mmHg 56%
    12:00 +11°C° 0 mm 4 m/S 750 mmHg 52%
    13:00 +11°C° 0 mm 4 m/S 750 mmHg 49%
    14:00 +11°C° 0 mm 4 m/S 750 mmHg 48%
    15:00 +11°C° 0 mm 4 m/S 749 mmHg 48%
    16:00 +11°C° 0 mm 3 m/S 749 mmHg 48%
    17:00 +9°C° 0 mm 3 m/S 750 mmHg 54%
    18:00 +8°C° 0 mm 2 m/S 750 mmHg 59%
    19:00 +7°C° 0 mm 1 m/S 750 mmHg 64%
    20:00 +7°C° 0 mm 1 m/S 750 mmHg 64%
    21:00 +6°C° 0 mm 1 m/S 751 mmHg 64%
    22:00 +6°C° 0 mm 1 m/S 751 mmHg 64%
    23:00 +6°C° 0 mm 1 m/S 751 mmHg 64%

    26 September, Mittwoch

    Zeit Temperatur Niederschläge Wind Luftdruck Luftfeuchtigkeit
    00:00 +5°C° 0 mm 1 m/S 751 mmHg 65%
    01:00 +5°C° 0 mm 1 m/S 751 mmHg 65%
    02:00 +4°C° 0 mm 2 m/S 751 mmHg 66%
    03:00 +4°C° 0 mm 2 m/S 750 mmHg 66%
    04:00 +3°C° 0 mm 2 m/S 750 mmHg 67%
    05:00 +4°C° 0 mm 2 m/S 750 mmHg 67%
    06:00 +5°C° 0 mm 2 m/S 750 mmHg 66%
    07:00 +5°C° 0 mm 2 m/S 750 mmHg 65%
    08:00 +7°C° 0 mm 3 m/S 750 mmHg 59%
    09:00 +8°C° 0 mm 4 m/S 749 mmHg 52%
    10:00 +11°C° 0 mm 4 m/S 749 mmHg 46%
    11:00 +12°C° 0 mm 5 m/S 748 mmHg 44%
    12:00 +13°C° 0 mm 5 m/S 748 mmHg 43%
    13:00 +14°C° 0 mm 5 m/S 747 mmHg 41%
    14:00 +14°C° 0 mm 5 m/S 747 mmHg 43%
    15:00 +14°C° 0 mm 5 m/S 746 mmHg 46%
    16:00 +14°C° 0 mm 4 m/S 746 mmHg 48%
    17:00 +12°C° 0 mm 4 m/S 745 mmHg 51%
    18:00 +11°C° 0 mm 4 m/S 745 mmHg 55%
    19:00 +8°C° 0 mm 4 m/S 745 mmHg 58%
    20:00 +9°C° 0 mm 3 m/S 745 mmHg 58%
    21:00 +8°C° 0 mm 3 m/S 745 mmHg 59%
    22:00 +8°C° 0 mm 3 m/S 745 mmHg 59%
    23:00 +8°C° 0 mm 3 m/S 745 mmHg 60%

    27 September, Donnerstag

    Zeit Temperatur Niederschläge Wind Luftdruck Luftfeuchtigkeit
    00:00 +7°C° 0 mm 3 m/S 744 mmHg 61%
    01:00 +7°C° 0 mm 2 m/S 744 mmHg 62%
    02:00 +7°C° 0 mm 2 m/S 744 mmHg 64%
    03:00 +7°C° 0 mm 2 m/S 743 mmHg 66%
    04:00 +7°C° 0 mm 2 m/S 743 mmHg 68%
    05:00 +7°C° 0 mm 2 m/S 743 mmHg 68%
    06:00 +7°C° 0 mm 2 m/S 743 mmHg 69%
    07:00 +8°C° 0 mm 2 m/S 743 mmHg 70%
    08:00 +10°C° 0 mm 3 m/S 743 mmHg 63%
    09:00 +12°C° 0 mm 3 m/S 743 mmHg 57%
    10:00 +16°C° 0 mm 3 m/S 743 mmHg 50%
    11:00 +17°C° 0 mm 4 m/S 742 mmHg 47%
    12:00 +18°C° 0 mm 4 m/S 742 mmHg 44%
    13:00 +19°C° 0 mm 4 m/S 742 mmHg 41%
    14:00 +19°C° 0 mm 4 m/S 741 mmHg 44%
    15:00 +19°C° 0 mm 4 m/S 741 mmHg 46%
    16:00 +19°C° 0 mm 3 m/S 740 mmHg 48%
    17:00 +17°C° 0 mm 3 m/S 740 mmHg 52%
    18:00 +14°C° 0 mm 3 m/S 740 mmHg 56%
    19:00 +13°C° 0 mm 2 m/S 740 mmHg 60%
    20:00 +13°C° 0 mm 2 m/S 740 mmHg 62%
    21:00 +13°C° 0 mm 2 m/S 740 mmHg 64%
    22:00 +13°C° 0 mm 2 m/S 740 mmHg 66%
    23:00 +12°C° 0 mm 2 m/S 740 mmHg 70%
    Mehr zeigen